Alva, OK

12:32 AM CDT on May 28, 2017 (GMT -0500)
Alva Regional

Weather History for KAVK - March, 2014

Change the Weather History Date:

Friday, March 28, 2014

  Actual Average Record
Temperature  
Mean Temperature 48 °F -  
Max Temperature 59 °F 66 °F 91 °F (1963)
Min Temperature 37 °F 43 °F 20 °F (1955)
Degree Days  
Heating Degree Days 17    
Moisture  
Dew Point 32 °F    
Average Humidity 62    
Maximum Humidity 81    
Minimum Humidity 36    
Precipitation  
Precipitation 0.00 in - - ()
Sea Level Pressure  
Sea Level Pressure 30.01 in    
Wind  
Wind Speed 10 mph (NE)    
Max Wind Speed 21 mph    
Max Gust Speed 26 mph    
Visibility 10 miles    
Events      
Averages and records for this station are not official NWS values.
T = Trace of Precipitation, MM = Missing Value Source: NWS Daily Summary

Daily Weather History Graph

Daily Weather History Graph

Search for Another Location

Airport or City:

Trip Planner

Search our weather history database for the weather conditions in past years. The results will help you decide how hot, cold, wet, or windy it might be!

Date:

Astronomy

Mar. 28, 2014 Rise Set
Actual Time 7:26 AM CDT 7:53 PM CDT
Civil Twilight 7:00 AM CDT 8:19 PM CDT
Nautical Twilight 6:29 AM CDT 8:50 PM CDT
Astronomical Twilight 5:58 AM CDT 9:21 PM CDT
Moon 5:54 AM CDT 5:54 PM CDT
Length of Visible Light 13h 19m
Length of Day
12h 27m
Waning Crescent, 6% of the Moon is Illuminated
Mar 28
Waning Crescent
Mar 30
New
Apr 7
First Quarter
Apr 15
Full
Apr 22
Last Quarter

Hourly Weather History & Observations

Time (CDT) Temp. Windchill Dew Point Humidity Pressure Visibility Wind Dir Wind Speed Gust Speed Precip Events Conditions
12:10 AM 46.4 °F 41.1 °F 33.8 °F 62% 29.84 in 10.0 mi ENE 11.5 mph - N/A   Clear
12:30 AM 46.4 °F 41.1 °F 33.8 °F 62% 29.86 in 10.0 mi NE 11.5 mph - N/A   Clear
12:50 AM 44.6 °F 39.7 °F 33.8 °F 66% 29.85 in 10.0 mi East 9.2 mph - N/A   Clear
1:10 AM 42.8 °F 37.5 °F 32.0 °F 66% 29.88 in 10.0 mi NNE 9.2 mph - N/A   Clear
1:30 AM 42.8 °F 37.5 °F 32.0 °F 66% 29.87 in 10.0 mi NE 9.2 mph - N/A   Clear
1:50 AM 41.0 °F 34.7 °F 32.0 °F 70% 29.88 in 10.0 mi NE 10.4 mph - N/A   Clear
2:10 AM 41.0 °F 35.8 °F 32.0 °F 70% 29.88 in 10.0 mi ENE 8.1 mph - N/A   Clear
2:30 AM 39.2 °F 33.6 °F 32.0 °F 75% 29.88 in 10.0 mi NE 8.1 mph - N/A   Clear
2:50 AM 39.2 °F 32.5 °F 32.0 °F 75% 29.88 in 10.0 mi NE 10.4 mph - N/A   Scattered Clouds
3:10 AM 39.2 °F 32.5 °F 32.0 °F 75% 29.90 in 10.0 mi NE 10.4 mph - N/A   Mostly Cloudy
3:30 AM 39.2 °F 34.2 °F 32.0 °F 75% 29.89 in 10.0 mi ENE 6.9 mph - N/A   Scattered Clouds
3:55 AM 37.4 °F 31.4 °F 32.0 °F 81% 29.90 in 10.0 mi ENE 8.1 mph - N/A   Partly Cloudy
4:10 AM 37.4 °F 31.4 °F 32.0 °F 81% 29.89 in 10.0 mi NE 8.1 mph - N/A   Clear
4:30 AM 37.4 °F 30.8 °F 32.0 °F 81% 29.90 in 9.0 mi NE 9.2 mph - N/A   Clear
4:50 AM 37.4 °F 30.8 °F 32.0 °F 81% 29.91 in 10.0 mi NNE 9.2 mph - N/A   Clear
5:15 AM 37.4 °F 30.3 °F 32.0 °F 81% 29.93 in 10.0 mi NE 10.4 mph - N/A   Clear
5:30 AM 37.4 °F 30.8 °F 32.0 °F 81% 29.94 in 10.0 mi NE 9.2 mph - N/A   Clear
5:50 AM 37.4 °F 30.8 °F 32.0 °F 81% 29.95 in 10.0 mi NNE 9.2 mph - N/A   Clear
6:10 AM 37.4 °F 32.1 °F 32.0 °F 81% 29.97 in 10.0 mi NE 6.9 mph - N/A   Clear
6:30 AM 37.4 °F 30.8 °F 32.0 °F 81% 29.97 in 10.0 mi NE 9.2 mph - N/A   Clear
6:55 AM 37.4 °F 30.3 °F 32.0 °F 81% 29.97 in 10.0 mi NNE 10.4 mph - N/A   Clear
7:15 AM 37.4 °F 31.4 °F 30.2 °F 75% 29.98 in 10.0 mi NE 8.1 mph - N/A   Partly Cloudy
7:30 AM 37.4 °F 31.4 °F 32.0 °F 81% 30.01 in 10.0 mi North 8.1 mph - N/A   Scattered Clouds
7:50 AM 37.4 °F 32.1 °F 30.2 °F 75% 30.04 in 10.0 mi NE 6.9 mph - N/A   Partly Cloudy
8:10 AM 37.4 °F 29.8 °F 30.2 °F 75% 30.03 in 9.0 mi NNE 11.5 mph - N/A   Clear
8:35 AM 37.4 °F 29.3 °F 30.2 °F 75% 30.02 in 8.0 mi NNE 12.7 mph - N/A   Clear
8:50 AM 37.4 °F 30.3 °F 30.2 °F 75% 30.03 in 8.0 mi NNE 10.4 mph - N/A   Clear
9:10 AM 37.4 °F 29.8 °F 30.2 °F 75% 30.03 in 8.0 mi NE 11.5 mph - N/A   Clear
9:35 AM 37.4 °F 30.3 °F 28.4 °F 70% 30.04 in 9.0 mi NNE 10.4 mph 16.1 mph N/A   Clear
9:55 AM 37.4 °F 29.3 °F 28.4 °F 70% 30.03 in 9.0 mi NE 12.7 mph - N/A   Clear
10:10 AM 39.2 °F 31.6 °F 28.4 °F 65% 30.03 in 9.0 mi NNE 12.7 mph - N/A   Clear
10:30 AM 39.2 °F 31.6 °F 28.4 °F 65% 30.03 in 10.0 mi NNE 12.7 mph - N/A   Clear
10:50 AM 39.2 °F 31.2 °F 28.4 °F 65% 30.05 in 10.0 mi NNE 13.8 mph 19.6 mph N/A   Partly Cloudy
11:10 AM 41.0 °F 32.8 °F 30.2 °F 65% 30.06 in 10.0 mi NNE 16.1 mph - N/A   Partly Cloudy
11:30 AM 42.8 °F 34.0 °F 30.2 °F 61% 30.06 in 10.0 mi North 20.7 mph - N/A   Clear
11:50 AM 44.6 °F 36.9 °F 32.0 °F 61% 30.06 in 10.0 mi NNE 18.4 mph 23.0 mph N/A   Clear
12:15 PM 46.4 °F 39.0 °F 32.0 °F 57% 30.07 in 10.0 mi North 19.6 mph 26.5 mph N/A   Clear
12:35 PM 46.4 °F 39.2 °F 30.2 °F 53% 30.06 in 10.0 mi North 18.4 mph 24.2 mph N/A   Clear
12:50 PM 48.2 °F - 30.2 °F 50% 30.06 in 10.0 mi NNE 18.4 mph 24.2 mph N/A   Clear
1:10 PM 48.2 °F - 32.0 °F 54% 30.06 in 10.0 mi North 16.1 mph 23.0 mph N/A   Clear
1:30 PM 50.0 °F - 30.2 °F 47% 30.06 in 10.0 mi North 13.8 mph - N/A   Clear
1:50 PM 50.0 °F - 30.2 °F 47% 30.06 in 10.0 mi North 10.4 mph - N/A   Partly Cloudy
2:10 PM 53.6 °F - 30.2 °F 41% 30.05 in 9.0 mi NNE 16.1 mph 21.9 mph N/A   Mostly Cloudy
2:30 PM 53.6 °F - 30.2 °F 41% 30.05 in 10.0 mi NNE 13.8 mph 20.7 mph N/A   Scattered Clouds
2:50 PM 53.6 °F - 32.0 °F 44% 30.04 in 10.0 mi NNE 17.3 mph - N/A   Partly Cloudy
3:15 PM 55.4 °F - 32.0 °F 41% 30.03 in 10.0 mi NE 18.4 mph - N/A   Clear
3:30 PM 55.4 °F - 32.0 °F 41% 30.03 in 10.0 mi North 12.7 mph 24.2 mph N/A   Clear
3:50 PM 57.2 °F - 32.0 °F 38% 30.03 in 10.0 mi NNE 16.1 mph 21.9 mph N/A   Partly Cloudy
4:10 PM 57.2 °F - 32.0 °F 38% 30.02 in 10.0 mi NE 13.8 mph 21.9 mph N/A   Mostly Cloudy
4:30 PM 59.0 °F - 32.0 °F 36% 30.02 in 10.0 mi NE 12.7 mph 19.6 mph N/A   Partly Cloudy
4:50 PM 59.0 °F - 32.0 °F 36% 30.02 in 10.0 mi NNE 11.5 mph 23.0 mph N/A   Clear
5:10 PM 59.0 °F - 35.6 °F 42% 30.02 in 10.0 mi NNE 12.7 mph 18.4 mph N/A   Partly Cloudy
5:30 PM 59.0 °F - 35.6 °F 42% 30.02 in 10.0 mi NNE 10.4 mph - N/A   Mostly Cloudy
5:50 PM 59.0 °F - 35.6 °F 42% 30.02 in 10.0 mi ENE 12.7 mph 17.3 mph N/A   Partly Cloudy
6:10 PM 59.0 °F - 35.6 °F 42% 30.02 in 10.0 mi NE 8.1 mph - N/A   Clear
6:30 PM 59.0 °F - 35.6 °F 42% 30.03 in 10.0 mi ENE 8.1 mph - N/A   Clear
6:50 PM 59.0 °F - 35.6 °F 42% 30.04 in 10.0 mi East 8.1 mph - N/A   Partly Cloudy
7:10 PM 57.2 °F - 35.6 °F 44% 30.05 in 10.0 mi ENE 5.8 mph - N/A   Clear
7:30 PM 57.2 °F - 35.6 °F 44% 30.06 in 10.0 mi East 4.6 mph - N/A   Clear
7:50 PM 53.6 °F - 35.6 °F 51% 30.07 in 10.0 mi ESE 4.6 mph - N/A   Clear
8:10 PM 50.0 °F - 37.4 °F 62% 30.08 in 10.0 mi SE 5.8 mph - N/A   Clear
8:30 PM 50.0 °F - 35.6 °F 58% 30.09 in 10.0 mi ESE 5.8 mph - N/A   Clear
8:50 PM 50.0 °F - 35.6 °F 58% 30.10 in 10.0 mi SE 6.9 mph - N/A   Clear
9:10 PM 46.4 °F 44.3 °F 35.6 °F 66% 30.11 in 10.0 mi SE 4.6 mph - N/A   Clear
9:30 PM 46.4 °F 44.3 °F 35.6 °F 66% 30.12 in 10.0 mi SE 4.6 mph - N/A   Clear
9:50 PM 44.6 °F 42.2 °F 33.8 °F 66% 30.12 in 10.0 mi SSE 4.6 mph - N/A   Clear
10:10 PM 44.6 °F 42.2 °F 33.8 °F 66% 30.13 in 10.0 mi SSW 4.6 mph - N/A   Clear
10:30 PM 41.0 °F 39.0 °F 33.8 °F 76% 30.13 in 10.0 mi SSW 3.5 mph - N/A   Clear
10:50 PM 44.6 °F 42.2 °F 33.8 °F 66% 30.14 in 10.0 mi SSW 4.6 mph - N/A   Clear
11:15 PM 41.0 °F 38.0 °F 33.8 °F 76% 30.14 in 10.0 mi South 4.6 mph - N/A   Clear
11:30 PM 42.8 °F 40.1 °F 33.8 °F 70% 30.14 in 10.0 mi South 4.6 mph - N/A   Clear
11:50 PM 42.8 °F 41.1 °F 35.6 °F 76% 30.15 in 10.0 mi SSW 3.5 mph - N/A   Partly Cloudy